Wind_Speed
10 10 8 7 5 6 10 6 8 5 3 7 4 4 2 3 2 2 8 12 13 12 11 14 14 12 12 12 12 12 13 13 11 10 10 11 11 11 11 11 10 9 9 9 9 9 9 9 9
8 8 6 8 5 9 7 8 9 10 7 7 1 5 6 7 4 3 10 14 14 11 10 11 12 11 10 11 11 10 11 11 10 10 9 9 9 9 9 9 8 7 8 8 7 8 9 9 8
9 9 8 6 6 7 8 7 7 8 6 7 7 2 4 3 5 7 11 11 15 13 11 11 11 11 10 10 10 9 9 10 9 9 9 8 7 7 6 7 8 7 6 6 6 6 7 8 8
9 7 8 7 9 6 9 9 6 4 4 7 10 1 7 12 10 11 12 12 14 13 12 12 11 11 11 10 9 8 9 9 8 8 7 6 5 5 5 5 5 5 5 5 5 5 5 5 6
11 6 6 7 8 8 7 7 5 6 4 8 7 3 4 15 11 11 11 12 12 11 12 12 12 11 11 9 8 8 8 7 7 6 6 5 5 4 3 3 3 3 3 4 4 4 4 3 3
8 6 5 5 5 2 3 2 3 4 6 7 8 3 6 16 13 11 12 12 13 11 10 11 12 10 9 9 8 7 6 6 5 5 4 4 3 2 1 2 3 3 3 4 4 4 5 5 4
7 6 6 3 8 5 3 2 5 4 5 7 5 3 5 13 16 12 12 12 12 12 11 10 10 11 10 9 7 6 5 4 4 3 3 2 3 2 3 4 4 5 6 7 7 6 6 6 6
8 7 7 5 2 4 1 4 5 6 5 6 2 5 6 10 15 15 14 13 13 13 11 10 8 8 9 8 7 6 4 3 3 3 4 4 3 3 4 5 7 9 10 9 10 10 9 9 8
9 6 6 2 0 1 3 3 2 4 4 4 6 2 5 7 13 15 14 14 13 13 11 10 8 7 7 7 6 4 3 3 1 2 4 4 3 2 3 5 5 6 4 12 12 12 12 12 11
6 14 10 3 2 2 2 4 3 4 6 10 4 1 3 6 10 12 12 10 10 9 10 9 8 6 5 4 4 3 3 2 2 1 1 3 5 6 6 5 3 3 4 4 12 16 15 13 13
15 13 9 5 2 1 4 5 3 3 10 11 7 7 8 9 11 14 12 9 7 8 8 7 6 6 5 4 2 2 2 3 3 3 2 3 6 5 4 4 3 4 3 4 3 10 17 15 15
12 13 7 6 2 4 7 4 5 6 7 13 14 15 11 12 11 13 11 9 9 6 5 5 5 5 5 4 4 3 4 5 4 4 5 5 5 5 5 3 4 4 6 5 5 5 8 13 16
6 5 6 5 7 6 7 7 4 3 7 9 14 19 18 16 17 18 16 12 10 7 2 4 5 5 5 5 6 4 2 3 4 5 5 6 6 5 4 7 9 11 10 8 7 7 8 9 11
7 5 5 7 12 8 6 8 4 4 5 10 6 11 19 19 17 15 15 13 6 0 1 2 4 6 8 6 6 4 3 5 4 5 6 7 7 7 4 11 12 15 14 10 7 8 11 8 9
8 7 2 3 10 10 7 10 9 4 6 5 9 5 11 16 17 15 12 7 3 5 7 6 3 6 7 8 7 7 7 8 7 7 7 4 6 7 9 12 13 15 17 12 10 10 11 11 11
5 7 2 5 12 11 10 14 12 8 8 4 5 8 7 9 11 14 15 4 5 5 5 9 3 8 7 5 5 7 8 8 8 8 7 6 7 8 13 15 16 19 19 16 12 13 12 14 15
2 7 10 10 7 12 12 19 18 12 11 7 3 8 7 8 8 9 6 3 6 11 7 2 8 10 7 5 6 6 6 5 4 6 7 6 8 10 12 15 16 18 18 16 15 13 12 17 16
4 10 8 7 1 13 16 19 18 20 14 10 7 4 3 7 7 6 5 2 4 10 8 7 9 13 9 5 5 6 5 3 3 4 4 8 9 11 15 15 17 18 15 11 12 15 17 16 18
10 11 12 6 7 12 16 13 12 18 19 15 12 5 2 3 3 5 6 5 4 9 8 7 4 10 9 8 4 5 5 4 4 4 5 7 10 12 15 17 16 15 10 9 10 14 13 18 20
14 14 9 7 12 8 11 8 10 11 16 15 13 9 5 5 8 6 5 6 6 6 4 2 3 7 10 9 8 5 4 7 7 6 9 11 15 15 15 17 16 12 10 10 12 14 16 17 20
19 15 8 12 20 6 13 10 15 16 20 18 14 12 9 10 12 10 7 3 5 5 6 4 4 8 11 10 9 8 8 11 11 10 9 12 13 14 16 15 16 16 19 18 17 18 18 17 18
21 16 11 14 20 12 12 11 17 20 15 16 17 13 10 12 14 13 10 5 3 4 6 6 6 7 9 9 9 8 9 10 8 7 10 10 13 14 17 17 15 15 16 16 16 16 16 16 18
18 11 12 14 17 10 10 10 13 13 13 14 14 16 7 11 10 13 13 8 9 9 7 8 8 8 8 7 8 8 8 6 4 5 8 12 14 13 11 11 10 10 11 11 12 12 13 13 14
15 10 11 11 8 4 8 9 16 22 15 14 9 11 12 11 9 11 15 15 11 11 11 9 10 10 10 9 7 7 7 5 2 4 7 10 8 8 10 11 12 12 12 12 12 11 12 13 14
14 9 3 2 0 7 7 8 17 13 11 11 8 6 9 12 8 10 14 17 15 11 10 10 9 9 8 9 9 8 6 5 3 5 7 4 5 8 9 11 13 15 16 15 14 14 14 14 15
12 12 7 5 4 8 9 7 13 10 19 14 10 7 13 10 9 9 14 15 18 12 11 11 8 8 8 9 9 8 8 7 5 6 4 3 7 9 10 11 12 13 14 15 16 15 15 15 15
7 7 11 12 4 1 6 9 14 17 20 14 12 12 16 10 11 11 15 16 16 17 13 11 10 10 10 10 10 10 10 9 6 6 5 6 9 8 10 12 12 13 15 14 15 16 16 16 16
9 6 6 6 4 4 6 11 16 18 18 15 20 14 15 14 11 12 13 15 13 16 17 16 13 12 12 10 10 10 11 11 9 7 7 8 8 10 10 11 13 14 16 16 16 17 18 18 18
13 9 6 8 6 8 3 9 15 16 12 14 11 14 14 12 12 12 14 17 18 19 21 19 15 13 14 12 11 12 13 12 10 7 7 8 9 11 11 13 16 19 20 19 17 16 17 18 19
12 10 11 9 7 10 11 21 17 13 15 13 13 10 12 12 11 11 13 17 21 20 22 21 18 17 16 14 14 13 15 13 10 8 9 8 11 13 15 16 19 23 23 22 20 18 15 15 16
Wind_Direction
65 59 56 44 54 78 74 84 69 51 58 40 189 241 299 328 43 72 156 144 147 150 143 137 129 124 118 116 115 114 106 96 94 98 96 94 105 111 115 114 113 118 126 132 134 129 128 128 129
51 54 46 34 81 68 60 96 44 97 58 17 99 244 273 257 238 27 155 147 144 143 145 139 129 125 124 120 115 106 102 106 103 100 99 100 105 109 118 120 121 128 129 130 129 129 128 130 123
46 91 74 12 63 94 66 84 58 70 70 2 337 291 234 272 197 146 146 147 139 142 142 137 131 132 131 125 119 112 109 104 104 99 93 92 100 110 121 134 138 134 132 129 133 133 139 129 122
56 65 63 72 74 93 84 91 99 51 46 44 9 49 121 114 129 148 143 144 137 140 141 136 138 137 138 135 124 116 106 96 89 89 88 91 105 118 128 133 131 139 150 148 147 143 152 146 141
40 32 63 104 74 70 80 84 56 36 42 38 41 122 115 114 131 140 143 140 135 139 140 137 139 144 139 129 115 105 98 94 93 93 87 87 96 110 120 128 144 167 169 168 165 161 171 184 173
14 9 37 86 86 47 112 114 11 2 37 33 51 54 142 131 133 147 148 142 137 138 141 140 140 140 133 121 113 111 107 103 95 82 69 57 55 72 142 173 194 210 221 216 205 191 192 202 210
339 350 352 180 29 11 347 79 60 12 25 33 67 46 176 152 141 155 155 149 142 141 143 143 147 146 141 136 131 123 111 96 76 62 49 20 356 345 295 263 245 238 236 237 231 226 223 219 216
313 308 313 261 273 5 20 6 86 64 31 6 46 19 184 185 156 160 165 156 151 146 145 144 149 145 143 141 143 134 125 102 85 43 13 335 316 305 304 277 260 243 234 236 240 234 232 236 234
294 289 321 332 357 12 61 13 63 123 38 322 356 350 195 192 162 163 172 161 157 152 148 146 148 149 152 155 155 146 129 110 102 33 48 50 8 360 339 333 345 320 266 229 238 243 240 237 239
358 293 302 355 30 5 57 22 25 59 18 11 357 222 193 172 154 164 163 155 154 156 153 154 152 152 161 172 170 164 169 170 212 231 29 54 40 29 25 15 15 319 300 253 236 237 241 247 248
31 354 268 271 198 296 357 27 58 43 31 55 74 114 157 165 155 157 150 155 163 164 153 159 162 164 178 187 200 220 248 255 245 232 251 327 4 11 25 24 360 329 338 302 290 242 233 239 249
28 13 300 220 288 316 319 360 91 67 47 51 89 99 128 150 154 158 154 147 157 155 161 178 183 187 202 209 217 250 291 282 269 286 248 267 309 322 328 339 318 305 295 296 304 278 237 242 252
40 345 328 256 255 259 307 331 85 59 42 36 87 100 110 132 143 147 144 139 120 89 83 205 212 221 224 233 226 247 280 275 314 303 279 267 288 288 310 318 308 302 300 304 287 294 276 251 256
19 15 326 241 247 256 275 311 325 3 17 43 70 103 112 114 125 130 129 124 113 352 296 117 207 224 228 238 231 253 259 259 269 280 292 289 303 306 344 336 311 297 297 292 295 293 279 264 268
19 34 27 272 245 251 258 295 290 323 347 11 40 86 118 118 122 122 118 105 88 17 250 196 230 217 213 236 242 245 244 249 255 264 282 280 292 274 300 323 326 304 294 294 294 275 273 276 273
32 49 29 274 237 245 247 285 297 291 320 339 7 36 80 128 122 118 125 100 241 82 39 180 224 202 201 215 218 221 233 241 259 268 274 273 272 285 280 298 313 312 295 277 279 278 282 283 283
42 25 29 21 261 237 266 302 301 295 299 308 286 357 58 101 110 119 155 236 276 301 316 320 188 187 188 201 209 209 233 249 271 293 281 267 269 295 294 297 308 313 306 252 260 272 278 281 284
251 334 360 34 351 291 287 302 296 285 293 286 271 310 18 103 111 109 114 104 272 291 309 320 224 185 190 216 198 218 224 236 355 336 283 279 276 297 306 312 319 317 327 263 256 270 273 279 283
265 293 316 345 330 287 285 302 313 275 280 266 262 261 287 166 213 124 131 139 200 261 269 281 253 202 203 201 200 220 221 263 285 285 298 300 295 304 313 320 321 320 314 302 280 266 285 285 285
259 273 306 328 355 324 332 328 321 298 288 263 255 254 259 211 165 147 136 136 166 176 189 227 247 206 209 202 204 224 246 274 271 276 285 293 310 312 316 315 322 313 302 293 284 280 279 281 288
249 257 286 308 339 291 342 315 319 293 284 261 244 237 226 210 170 153 138 176 180 180 176 177 211 209 204 209 220 230 256 265 270 271 277 297 303 303 314 310 317 311 304 299 296 297 297 292 291
239 235 273 304 325 313 319 311 301 300 279 270 256 247 244 209 195 165 160 176 250 212 207 202 212 208 207 212 224 232 251 265 266 282 297 301 312 307 309 309 321 323 319 316 313 308 302 297 295
230 265 275 301 301 287 291 298 305 306 309 307 266 254 240 216 202 199 171 169 181 237 223 213 214 218 228 219 228 232 239 253 281 312 319 309 310 313 318 332 332 344 338 330 324 325 326 321 317
239 258 286 307 272 250 271 259 279 289 301 295 229 243 232 201 204 194 190 195 217 219 231 216 212 214 220 225 229 227 225 221 251 310 317 317 331 359 9 7 9 12 6 360 355 350 342 336 326
231 243 304 346 182 225 247 252 280 301 337 311 219 214 230 214 202 193 205 213 214 234 228 230 217 224 225 221 227 228 219 229 264 300 313 327 350 351 350 352 350 355 359 359 357 356 350 342 331
224 238 205 197 202 258 268 236 263 302 313 302 238 233 207 195 208 200 209 208 209 221 226 229 225 228 232 224 231 232 234 239 265 297 302 295 324 329 339 349 343 346 347 350 352 351 348 343 337
227 244 247 240 204 251 238 252 257 288 303 260 248 239 223 199 194 208 203 205 207 214 219 222 222 227 223 221 228 244 242 245 262 291 287 296 323 342 347 341 343 348 348 345 337 337 338 338 335
234 234 213 199 134 209 249 243 254 300 299 279 261 246 222 218 207 223 217 204 214 208 213 221 225 234 232 232 241 250 242 242 250 272 278 306 327 326 325 333 337 342 339 339 335 329 331 331 329
210 225 214 242 205 169 219 251 272 296 297 294 296 237 242 236 231 225 214 209 210 206 211 220 226 238 248 238 247 249 248 246 247 263 275 306 319 318 315 326 339 340 336 330 326 324 322 322 324
242 237 267 225 222 233 244 253 268 279 295 282 297 242 247 241 251 221 231 228 222 211 214 224 231 239 246 243 248 250 249 248 251 264 289 298 310 318 322 326 333 336 333 329 324 323 322 322 324
Height
3166 3167 3165 3164 3168 3164 3163 3166 3165 3164 3164 3163 3164 3164 3165 3165 3166 3170 3167 3169 3172 3174 3175 3176 3177 3179 3181 3183 3184 3186 3186 3187 3188 3190 3190 3190 3191 3192 3192 3193 3193 3194 3194 3195 3196 3196 3196 3197 3198
3168 3167 3167 3166 3167 3164 3166 3166 3166 3165 3165 3164 3164 3164 3165 3166 3167 3167 3168 3170 3173 3175 3177 3178 3179 3181 3182 3184 3186 3187 3188 3189 3191 3192 3192 3192 3193 3194 3195 3195 3195 3196 3197 3197 3198 3198 3198 3199 3199
3170 3170 3170 3168 3167 3167 3168 3168 3167 3166 3166 3166 3165 3164 3164 3165 3166 3168 3169 3172 3174 3177 3179 3180 3181 3183 3185 3186 3188 3189 3191 3192 3193 3193 3193 3194 3195 3196 3197 3197 3197 3197 3198 3199 3200 3200 3200 3200 3200
3174 3174 3174 3171 3169 3169 3168 3169 3168 3168 3166 3166 3165 3165 3166 3165 3167 3170 3172 3174 3175 3178 3180 3182 3183 3185 3187 3188 3190 3191 3193 3193 3194 3195 3196 3197 3198 3198 3198 3199 3199 3198 3199 3200 3200 3201 3201 3201 3202
3175 3174 3173 3172 3170 3170 3169 3169 3168 3168 3167 3167 3166 3166 3166 3166 3170 3172 3174 3175 3177 3179 3181 3183 3185 3187 3189 3190 3192 3193 3195 3196 3197 3198 3198 3199 3199 3199 3200 3200 3200 3200 3200 3200 3201 3202 3202 3203 3203
3177 3176 3176 3175 3171 3170 3170 3169 3170 3169 3167 3167 3166 3165 3167 3167 3171 3174 3175 3177 3179 3181 3183 3184 3186 3188 3190 3192 3194 3195 3197 3197 3198 3198 3198 3199 3200 3200 3200 3200 3201 3201 3201 3201 3201 3201 3202 3203 3204
3178 3176 3176 3175 3173 3170 3170 3169 3170 3169 3168 3167 3168 3167 3168 3168 3170 3174 3176 3178 3180 3182 3184 3185 3187 3189 3190 3193 3195 3196 3197 3198 3199 3199 3198 3199 3199 3199 3199 3200 3200 3200 3200 3201 3202 3202 3202 3203 3203
3177 3176 3175 3174 3174 3173 3170 3169 3169 3170 3170 3169 3168 3169 3168 3169 3170 3174 3177 3179 3181 3183 3184 3186 3189 3190 3192 3194 3195 3197 3198 3199 3199 3199 3199 3199 3199 3198 3198 3198 3198 3199 3199 3200 3201 3201 3201 3201 3202
3176 3176 3175 3174 3173 3173 3170 3170 3169 3171 3170 3168 3168 3168 3168 3169 3171 3174 3178 3179 3181 3183 3185 3187 3190 3191 3193 3195 3196 3197 3198 3199 3199 3199 3200 3199 3198 3198 3198 3197 3197 3196 3196 3198 3200 3199 3200 3200 3201
3177 3177 3176 3176 3175 3174 3172 3172 3171 3172 3170 3167 3168 3169 3168 3170 3172 3176 3179 3181 3183 3185 3187 3188 3190 3192 3194 3196 3197 3198 3198 3199 3199 3200 3200 3201 3199 3199 3197 3197 3197 3197 3197 3197 3197 3197 3197 3198 3199
3177 3176 3176 3177 3176 3175 3174 3173 3173 3173 3172 3169 3169 3168 3168 3170 3172 3176 3179 3181 3184 3186 3188 3190 3191 3193 3195 3196 3197 3198 3199 3199 3199 3199 3200 3200 3199 3199 3198 3197 3198 3198 3197 3197 3196 3195 3196 3197 3197
3178 3177 3175 3175 3176 3176 3176 3175 3175 3173 3174 3172 3171 3169 3169 3171 3173 3177 3180 3183 3185 3187 3188 3190 3192 3193 3195 3197 3198 3199 3199 3199 3199 3199 3200 3199 3199 3198 3197 3197 3197 3197 3196 3195 3195 3194 3194 3195 3195
3178 3177 3176 3177 3177 3176 3176 3176 3176 3175 3175 3175 3173 3172 3172 3173 3176 3178 3181 3183 3185 3187 3188 3189 3191 3193 3195 3196 3197 3198 3199 3199 3198 3198 3199 3199 3198 3197 3197 3196 3197 3195 3194 3193 3193 3193 3193 3192 3192
3179 3177 3176 3176 3177 3177 3177 3177 3176 3176 3175 3176 3176 3176 3175 3176 3178 3179 3180 3182 3185 3186 3187 3189 3190 3192 3194 3196 3196 3197 3198 3198 3198 3198 3198 3198 3198 3198 3198 3197 3194 3192 3190 3190 3190 3191 3191 3191 3190
3178 3177 3177 3177 3177 3177 3178 3177 3176 3176 3175 3175 3176 3177 3178 3178 3180 3180 3181 3181 3184 3186 3187 3187 3189 3190 3193 3195 3196 3196 3197 3197 3197 3196 3196 3196 3197 3196 3195 3194 3193 3192 3189 3187 3187 3188 3189 3189 3188
3178 3178 3177 3177 3176 3178 3179 3176 3176 3176 3175 3175 3176 3178 3178 3180 3181 3180 3180 3181 3182 3184 3185 3187 3189 3190 3192 3193 3194 3196 3196 3196 3196 3196 3195 3195 3196 3194 3194 3193 3192 3189 3187 3186 3186 3186 3186 3186 3186
3178 3178 3177 3177 3178 3178 3179 3175 3176 3176 3176 3176 3175 3177 3178 3178 3180 3180 3181 3182 3183 3184 3186 3189 3188 3189 3191 3192 3193 3194 3195 3195 3195 3195 3195 3194 3194 3192 3192 3191 3189 3186 3183 3182 3182 3183 3183 3183 3182
3178 3177 3178 3178 3180 3178 3177 3173 3175 3175 3175 3175 3175 3176 3177 3177 3179 3180 3181 3181 3183 3185 3187 3189 3188 3187 3189 3190 3192 3193 3194 3194 3194 3192 3193 3191 3191 3192 3190 3188 3186 3184 3180 3180 3181 3181 3180 3180 3179
3177 3177 3177 3179 3179 3178 3174 3173 3173 3172 3173 3174 3174 3176 3177 3178 3178 3179 3180 3180 3181 3183 3185 3186 3186 3186 3187 3189 3190 3191 3192 3193 3193 3192 3191 3190 3190 3190 3189 3187 3184 3182 3180 3178 3177 3177 3178 3177 3176
3176 3176 3176 3176 3177 3177 3173 3171 3171 3171 3171 3173 3174 3175 3176 3178 3178 3178 3180 3180 3180 3182 3183 3184 3184 3185 3187 3188 3189 3189 3190 3190 3191 3191 3190 3190 3190 3189 3187 3185 3182 3180 3179 3177 3176 3175 3175 3174 3172
3173 3175 3175 3176 3175 3175 3173 3170 3170 3169 3168 3170 3171 3172 3174 3176 3177 3178 3178 3180 3181 3182 3182 3183 3185 3185 3186 3187 3187 3188 3188 3189 3190 3190 3189 3189 3188 3187 3184 3182 3180 3178 3177 3175 3173 3171 3170 3171 3169
3171 3174 3174 3173 3173 3172 3172 3169 3170 3168 3167 3166 3168 3169 3172 3174 3175 3175 3176 3179 3181 3181 3182 3182 3183 3184 3184 3185 3185 3186 3188 3188 3189 3188 3188 3187 3186 3185 3183 3180 3177 3175 3173 3172 3170 3168 3167 3166 3166
3170 3170 3171 3171 3170 3171 3170 3169 3168 3166 3165 3164 3165 3166 3169 3171 3171 3174 3175 3177 3179 3180 3180 3180 3181 3182 3183 3183 3184 3185 3187 3187 3187 3187 3186 3185 3183 3182 3180 3178 3177 3174 3172 3170 3168 3166 3165 3163 3162
3165 3167 3168 3168 3168 3169 3167 3169 3165 3164 3162 3161 3160 3163 3166 3167 3168 3170 3171 3174 3175 3175 3177 3178 3179 3180 3181 3182 3183 3184 3185 3186 3186 3185 3184 3183 3182 3180 3180 3178 3176 3173 3171 3169 3167 3165 3163 3161 3159
3162 3165 3167 3169 3169 3168 3165 3166 3163 3162 3160 3159 3160 3160 3162 3163 3164 3166 3168 3170 3171 3173 3174 3176 3177 3178 3179 3180 3181 3184 3185 3185 3184 3183 3183 3182 3181 3180 3179 3177 3176 3174 3171 3169 3167 3164 3162 3160 3158
3160 3162 3164 3169 3169 3164 3163 3162 3160 3160 3159 3158 3157 3158 3159 3160 3161 3164 3165 3166 3168 3170 3172 3175 3176 3177 3179 3179 3180 3182 3182 3183 3182 3181 3181 3180 3179 3178 3177 3175 3174 3172 3170 3168 3166 3163 3161 3159 3157
3156 3157 3160 3160 3163 3163 3160 3159 3158 3157 3156 3154 3155 3154 3154 3157 3159 3160 3161 3163 3165 3168 3171 3173 3173 3175 3177 3177 3178 3180 3181 3180 3181 3180 3180 3179 3177 3176 3176 3175 3174 3171 3169 3167 3164 3162 3160 3158 3155
3152 3154 3155 3155 3161 3163 3156 3155 3155 3155 3152 3151 3150 3151 3153 3154 3154 3157 3160 3162 3164 3165 3168 3170 3172 3174 3175 3176 3177 3178 3178 3179 3179 3179 3178 3178 3176 3175 3174 3173 3172 3170 3168 3166 3163 3160 3158 3155 3153
3149 3149 3151 3153 3153 3154 3157 3151 3152 3152 3150 3148 3147 3149 3150 3152 3152 3155 3158 3160 3161 3164 3166 3169 3170 3171 3173 3173 3174 3176 3176 3177 3177 3177 3177 3176 3175 3174 3173 3172 3170 3168 3166 3163 3160 3157 3155 3153 3150
3145 3146 3147 3148 3150 3149 3148 3145 3148 3149 3148 3146 3146 3148 3149 3150 3151 3154 3157 3158 3161 3162 3165 3166 3167 3169 3170 3169 3172 3173 3173 3175 3176 3176 3176 3176 3175 3174 3172 3171 3168 3166 3163 3160 3158 3155 3152 3149 3147